DELTA 1 DEB, 10663

Orbit data source: Space-Track

DELTA 1 DEB, 10663 is space debris in SSO originally from a launch on Thu, 29 Jul 1976 UTC launched from the Air Force Western Test Range (AFWTR). Debris objects in space refer to the collection of defunct objects orbiting the Earth. Examples of debris include non-operational satellites, rocket bodies, and fragments generated from explosions, collisions, or faulty payload assembly.

Loading next visibility...
Identifier
10663, 1976-077Z
Orbit
SSO
Country
Flag of USUS
Related business
Manufacturer
Unknown
Mission
Spacecraft
Bus & Motor
Unknown
Mass
Unknown
Launch date (UTC)
1976-07-29 (49 years ago)
Launch vehicle
Unknown
Launch site
Air Force Western Test Range (AFWTR)
Object type
Payload
Rocket body
Debris
Shape & HBR
Unknown shape, 0.1 m
Radar Cross Section
Small (<0.1 m²)

Expand to show TLE details & history
Last TLE update: 1 day ago

TLE from 1 day ago
0 DELTA 1 DEB
1 10663U 76077Z   25348.89800675  .00009789  00000-0  60221-2 0  9994
2 10663 100.6059 336.9121 0109719 316.0743  43.1734 14.02852395405072
Epoch: 2025-12-14T21:33Z
TLE epoch observation values (Epoch: 2025-12-14T21:33:07.783Z)
Latitude
-0.00003°
Longitude
-70.17465°
Altitude
829.054 km
Speed
7.468 km/s
True Right ascension
22h 27m 38s
True Declination
0° 00' 00"
Sunlit
Object was in daylight at epoch
Visualization orbit readout
Latitude
Unknown
Longitude
Unknown
Altitude
Unknown
Speed
Unknown
Apparent Right ascension
Unknown
Apparent Declination
Unknown
Sunlit
N/A
Visualization observer readout
Local Sidereal Time
22:29:32
Azimuth
Unknown
Elevation
Unknown
Doppler factor
Unknown
Orbital elements
Apogee altitude
960.864 km
Perigee altitude
801.566 km
Semi-major axis
7,259.352 km
Eccentricity
0.01097
Inclination
100.6059°
RAAN
336.9121°
Arg. of periapsis
316.0743°
True anomaly
44.0423°
Mean anomaly
43.1734°
Eccentric anomaly
43.60698°
Mean motion
3.50911 °/min
Orbital period
102.59 mins
BSTAR
0.0060221
Loading maneuver chart data...
Computing Atmospheric mass density...
Loading historical data...
Loading historical data...
Loading historical data...
Loading historical data...
Loading historical data...
Loading historical data...
Loading historical data...

Documentation

Showing up to 5 results
|